Flag for Canada Weather past 2 weeks in Markham, Ontario, Canada

Now
70 °F

Passing clouds.


Feels Like: 70 °F
Forecast: 45 / 72 °F
Wind: 7 mph from Southwest

Location: Toronto Buttonville

Current Time: Sep 23, 2014 at 12:22:31 PM

Latest Report: Sep 23, 2014 at 12:00 PM


Visibility: 15 mi

Pressure: 30.28 "Hg

Humidity: 53%

Dew point: 52 °F

Location of MarkhamLocation

Historic Weather in Markham — Graph

°F

Markham temperature yesterday

Maximum temperature yesterday: 57 °F (at 3:00 PM)
Minimum temperature yesterday: 46 °F (at 5:00 AM)
Average temperature yesterday: 51 °F

Past Weeks' High & Low Weather Summary

 TemperatureHumidityPressure
High75 °F (Sep 20, 3:00 PM)100% (Sep 13, 10:00 AM)30.37 "Hg (Sep 13, 10:00 AM)
Low37 °F (Sep 19, 6:00 AM)43% (Sep 17, 4:00 PM)29.52 "Hg (Sep 11, 4:00 AM)
Average57 °F76%30.07 "Hg
* Reported Sep 8 11:00 AM — Sep 23 11:00 AM, Markham, Weather by CustomWeather, © 2014

Note: Actual official high and low records may vary slightly from our data, if they occured in-between our weather recording intervals... More about our weather records

Advertising

Markham weather history for previous 24 hours

 ConditionsComfort  
Time TempWeatherWind HumidityBarometerVisibility
11:00 AM
Sep 23
66 °FPassing clouds.7 mph60%30.28 "Hg15 mi
10:00 AM61 °FPassing clouds.6 mph68%30.27 "Hg15 mi
9:00 AM57 °FScattered clouds.5 mph72%30.27 "Hg15 mi
8:00 AM50 °FPassing clouds.2 mph88%30.27 "Hg15 mi
7:00 AM48 °FPassing clouds.No wind87%30.26 "Hg15 mi
5:00 AM48 °FPassing clouds.3 mph82%30.24 "Hg15 mi
4:00 AM48 °FPassing clouds.2 mph82%30.23 "Hg15 mi
3:00 AM48 °FPassing clouds.3 mph82%30.23 "Hg15 mi
2:00 AM48 °FPassing clouds.5 mph76%30.22 "Hg15 mi
1:00 AM46 °FPassing clouds.No wind82%30.22 "Hg15 mi
12:00 AM46 °FPassing clouds.2 mph82%30.22 "Hg15 mi
11:00 PM
Sep 22
48 °FClear.3 mph76%30.21 "Hg15 mi
10:00 PM48 °FClear.3 mph76%30.19 "Hg15 mi
9:00 PM50 °FClear.3 mph67%30.17 "Hg15 mi
8:00 PM52 °FPassing clouds.6 mph62%30.16 "Hg15 mi
7:00 PM54 °FPassing clouds.7 mph58%30.14 "Hg15 mi
6:00 PM55 °FScattered clouds.8 mph55%30.12 "Hg15 mi
5:00 PM57 °FPartly sunny.14 mph51%30.11 "Hg15 mi
4:00 PM57 °FPartly sunny.10 mph51%30.09 "Hg15 mi
3:00 PM57 °FPartly sunny.10 mph51%30.09 "Hg15 mi
2:00 PM54 °FPartly sunny.14 mph63%30.09 "Hg15 mi
1:00 PM52 °FPartly sunny.12 mph72%30.09 "Hg15 mi
12:00 PM52 °FPartly sunny.7 mph72%30.07 "Hg15 mi
Weather by CustomWeather, © 2014

See weather overviewHow to use our weather pages